| time (UTC) | temp F | wind direction | speed knots | gust knots | rain 1hr in | rain 24hr in | rain mn in | humidity % | barometer mb |
| 20260508224337 | 50 | 261 | 0.0 | 0.9 | 0.00 | 0.00 | 0.00 | 83 | 1018.4 |
| 20260508223336 | 50 | 194 | 0.0 | 0.9 | 0.00 | 0.00 | 0.00 | 82 | 1018.4 |
| 20260508222837 | 50 | 257 | 0.0 | 0.9 | 0.00 | 0.00 | 0.00 | 82 | 1018.3 |
| 20260508222338 | 50 | 200 | 0.0 | 0.9 | 0.00 | 0.00 | 0.00 | 82 | 1018.2 |
| 20260508221837 | 50 | 134 | 0.9 | 2.6 | 0.00 | 0.00 | 0.00 | 82 | 1018.2 |
| 20260508221336 | 50 | 113 | 0.0 | 0.9 | 0.00 | 0.00 | 0.00 | 82 | 1018.2 |
| 20260508220836 | 51 | 143 | 0.0 | 0.9 | 0.00 | 0.00 | 0.00 | 82 | 1018.2 |
| 20260508220337 | 51 | 169 | 0.0 | 0.9 | 0.00 | 0.00 | 0.00 | 81 | 1018.1 |
| 20260508215337 | 51 | 130 | 0.0 | 0.9 | 0.00 | 0.00 | 0.00 | 81 | 1018.2 |
| 20260508214837 | 51 | 128 | 0.0 | 0.9 | 0.00 | 0.00 | 0.00 | 81 | 1018.1 |
| 20260508214337 | 51 | 116 | 0.0 | 1.7 | 0.00 | 0.00 | 0.00 | 80 | 1018.1 |
| 20260508213836 | 51 | 123 | 0.9 | 2.6 | 0.00 | 0.00 | 0.00 | 80 | 1018.1 |
| 20260508213338 | 52 | 99 | 0.0 | 1.7 | 0.00 | 0.00 | 0.00 | 80 | 1018.1 |
| 20260508212837 | 52 | 116 | 0.0 | 1.7 | 0.00 | 0.00 | 0.00 | 80 | 1018.1 |
| 20260508212337 | 52 | 108 | 0.9 | 2.6 | 0.00 | 0.00 | 0.00 | 81 | 1018.1 |
| 20260508211837 | 52 | 216 | 0.0 | 1.7 | 0.00 | 0.00 | 0.00 | 80 | 1018.0 |
| 20260508211337 | 52 | 138 | 0.0 | 1.7 | 0.00 | 0.00 | 0.00 | 80 | 1017.9 |
| 20260508205837 | 52 | 135 | 0.0 | 0.9 | 0.00 | 0.00 | 0.00 | 80 | 1017.8 |
| 20260508205338 | 53 | 125 | 0.0 | 0.9 | 0.00 | 0.00 | 0.00 | 80 | 1017.8 |
| 20260508204837 | 53 | 111 | 0.0 | 0.9 | 0.00 | 0.00 | 0.00 | 80 | 1017.7 |
| 20260508204338 | 53 | 110 | 0.9 | 1.7 | 0.00 | 0.00 | 0.00 | 80 | 1017.7 |
| 20260508202339 | 54 | 99 | 0.9 | 2.6 | 0.00 | 0.00 | 0.00 | 78 | 1017.4 |
| 20260508201839 | 54 | 91 | 0.9 | 4.3 | 0.00 | 0.00 | 0.00 | 78 | 1017.4 |
| 20260508201337 | 54 | 119 | 0.9 | 2.6 | 0.00 | 0.00 | 0.00 | 77 | 1017.3 |
| 20260508200839 | 54 | 113 | 0.0 | 0.9 | 0.00 | 0.00 | 0.00 | 77 | 1017.3 |
| 20260508195838 | 54 | 106 | 0.9 | 5.2 | 0.00 | 0.00 | 0.00 | 77 | 1017.2 |
| 20260508195338 | 54 | 99 | 0.9 | 4.3 | 0.00 | 0.00 | 0.00 | 76 | 1017.1 |
| 20260508194837 | 54 | 105 | 0.0 | 0.9 | 0.00 | 0.00 | 0.00 | 76 | 1017.0 |
| 20260508194337 | 54 | 107 | 0.0 | 1.7 | 0.00 | 0.00 | 0.00 | 76 | 1017.0 |
| 20260508193837 | 55 | 106 | 0.0 | 5.2 | 0.00 | 0.00 | 0.00 | 75 | 1017.0 |
| 20260508193337 | 55 | 102 | 1.7 | 4.3 | 0.00 | 0.00 | 0.00 | 75 | 1016.9 |
| 20260508192838 | 55 | 103 | 1.7 | 6.1 | 0.00 | 0.00 | 0.00 | 75 | 1016.8 |
| 20260508192338 | 55 | 93 | 1.7 | 6.1 | 0.00 | 0.00 | 0.00 | 74 | 1016.7 |
| 20260508191839 | 55 | 99 | 0.9 | 2.6 | 0.00 | 0.00 | 0.00 | 74 | 1016.7 |
| 20260508191337 | 56 | 107 | 0.9 | 2.6 | 0.00 | 0.00 | 0.00 | 75 | 1016.5 |
| 20260508190840 | 56 | 91 | 0.0 | 1.7 | 0.00 | 0.00 | 0.00 | 76 | 1016.3 |
| 20260508185838 | 56 | 107 | 1.7 | 2.6 | 0.00 | 0.00 | 0.00 | 79 | 1016.3 |
| 20260508185338 | 56 | 140 | 0.0 | 0.9 | 0.00 | 0.00 | 0.00 | 80 | 1016.3 |
| 20260508184839 | 56 | 150 | 0.0 | 0.9 | 0.00 | 0.00 | 0.00 | 79 | 1016.3 |
| 20260508184338 | 57 | 140 | 0.0 | 0.9 | 0.00 | 0.00 | 0.00 | 79 | 1016.2 |
| 20260508183840 | 57 | 188 | 0.0 | 0.0 | 0.00 | 0.00 | 0.00 | 79 | 1016.2 |
| 20260508183338 | 57 | 145 | 0.0 | 0.9 | 0.00 | 0.00 | 0.00 | 79 | 1016.1 |
| 20260508182839 | 57 | 135 | 0.0 | 1.7 | 0.00 | 0.00 | 0.00 | 78 | 1016.1 |
| 20260508182340 | 57 | 148 | 0.9 | 2.6 | 0.00 | 0.00 | 0.00 | 78 | 1016.0 |
| 20260508181838 | 57 | 123 | 0.0 | 1.7 | 0.00 | 0.00 | 0.00 | 77 | 1016.0 |
| 20260508181339 | 57 | 116 | 1.7 | 5.2 | 0.00 | 0.00 | 0.00 | 77 | 1015.9 |
| 20260508180840 | 57 | 116 | 1.7 | 5.2 | 0.00 | 0.00 | 0.00 | 76 | 1015.9 |
| 20260508175339 | 57 | 139 | 1.7 | 5.2 | 0.00 | 0.00 | 0.00 | 77 | 1016.1 |
| 20260508174839 | 57 | 145 | 1.7 | 5.2 | 0.00 | 0.00 | 0.00 | 78 | 1016.1 |
| 20260508174339 | 57 | 134 | 0.9 | 1.7 | 0.00 | 0.00 | 0.00 | 78 | 1016.0 |
| 20260508173839 | 57 | 152 | 2.6 | 5.2 | 0.00 | 0.00 | 0.00 | 78 | 1016.0 |
| 20260508172839 | 57 | 150 | 4.3 | 6.1 | 0.00 | 0.00 | 0.00 | 78 | 1015.9 |
| 20260508172339 | 57 | 154 | 2.6 | 5.2 | 0.00 | 0.00 | 0.00 | 78 | 1015.9 |
| 20260508171838 | 57 | 120 | 1.7 | 5.2 | 0.00 | 0.00 | 0.00 | 78 | 1015.9 |
| 20260508171338 | 57 | 108 | 2.6 | 7.0 | 0.00 | 0.00 | 0.00 | 77 | 1015.8 |
| 20260508170839 | 57 | 130 | 2.6 | 7.0 | 0.00 | 0.00 | 0.00 | 77 | 1015.8 |
| 20260508170339 | 58 | 167 | 3.5 | 5.2 | 0.00 | 0.00 | 0.00 | 76 | 1015.8 |
| 20260508165839 | 58 | 151 | 2.6 | 7.0 | 0.00 | 0.00 | 0.00 | 76 | 1015.7 |
| 20260508164840 | 58 | 140 | 0.9 | 2.6 | 0.00 | 0.00 | 0.00 | 75 | 1015.6 |
| 20260508164338 | 58 | 121 | 1.7 | 5.2 | 0.00 | 0.00 | 0.00 | 75 | 1015.6 |
| 20260508163840 | 58 | 102 | 1.7 | 7.0 | 0.00 | 0.00 | 0.00 | 74 | 1015.6 |
| 20260508163340 | 58 | 102 | 2.6 | 6.1 | 0.00 | 0.00 | 0.00 | 75 | 1015.6 |
| 20260508162839 | 58 | 96 | 4.3 | 7.0 | 0.00 | 0.00 | 0.00 | 74 | 1015.6 |
| 20260508162339 | 59 | 123 | 0.9 | 6.1 | 0.00 | 0.01 | 0.00 | 74 | 1015.5 |
| 20260508161841 | 59 | 146 | 0.9 | 2.6 | 0.00 | 0.01 | 0.00 | 75 | 1015.5 |
| 20260508161340 | 58 | 99 | 2.6 | 5.2 | 0.00 | 0.01 | 0.00 | 75 | 1015.5 |
| 20260508160840 | 58 | 110 | 5.2 | 8.7 | 0.00 | 0.01 | 0.00 | 74 | 1015.4 |
| 20260508160339 | 59 | 122 | 3.5 | 7.8 | 0.00 | 0.01 | 0.00 | 74 | 1015.5 |
| 20260508155841 | 59 | 111 | 4.3 | 5.2 | 0.00 | 0.01 | 0.00 | 75 | 1015.5 |
| 20260508154839 | 59 | 125 | 2.6 | 7.0 | 0.00 | 0.01 | 0.00 | 74 | 1015.5 |
| 20260508154340 | 59 | 151 | 1.7 | 6.1 | 0.00 | 0.01 | 0.00 | 74 | 1015.5 |
| 20260508153840 | 59 | 109 | 4.3 | 7.0 | 0.00 | 0.01 | 0.00 | 74 | 1015.6 |
| 20260508153341 | 59 | 131 | 5.2 | 8.7 | 0.00 | 0.01 | 0.00 | 74 | 1015.5 |
| 20260508152841 | 59 | 146 | 4.3 | 7.0 | 0.00 | 0.01 | 0.00 | 76 | 1015.6 |
| 20260508152340 | 59 | 142 | 5.2 | 7.0 | 0.00 | 0.02 | 0.00 | 75 | 1015.6 |
| 20260508151913 | 59 | 148 | 4.3 | 7.0 | 0.00 | 0.02 | 0.00 | 75 | 1015.7 |
| 20260508151346 | 59 | 124 | 1.7 | 6.1 | 0.00 | 0.02 | 0.00 | 75 | 1015.7 |
| 20260508150841 | 58 | 149 | 1.7 | 4.3 | 0.00 | 0.02 | 0.00 | 75 | 1015.7 |
| 20260508145842 | 57 | 102 | 0.9 | 4.3 | 0.00 | 0.02 | 0.00 | 77 | 1015.8 |
| 20260508145341 | 57 | 110 | 0.0 | 1.7 | 0.00 | 0.02 | 0.00 | 77 | 1015.8 |
| 20260508144840 | 57 | 133 | 0.0 | 1.7 | 0.00 | 0.02 | 0.00 | 78 | 1015.8 |
| 20260508144340 | 56 | 105 | 0.9 | 2.6 | 0.00 | 0.02 | 0.00 | 78 | 1015.9 |
| 20260508143840 | 56 | 118 | 0.9 | 4.3 | 0.00 | 0.02 | 0.00 | 79 | 1015.9 |
| 20260508143341 | 56 | 108 | 0.9 | 4.3 | 0.00 | 0.02 | 0.00 | 79 | 1015.9 |
| 20260508142840 | 56 | 142 | 1.7 | 2.6 | 0.00 | 0.02 | 0.00 | 80 | 1015.9 |
| 20260508142340 | 56 | 148 | 1.7 | 2.6 | 0.00 | 0.02 | 0.00 | 80 | 1015.8 |
| 20260508141842 | 56 | 122 | 1.7 | 4.3 | 0.00 | 0.02 | 0.00 | 80 | 1015.8 |
| 20260508141340 | 56 | 129 | 2.6 | 5.2 | 0.00 | 0.02 | 0.00 | 80 | 1015.8 |
| 20260508140340 | 56 | 120 | 2.6 | 5.2 | 0.00 | 0.02 | 0.00 | 80 | 1015.8 |
| 20260508135840 | 56 | 137 | 4.3 | 6.1 | 0.00 | 0.02 | 0.00 | 79 | 1015.8 |
| 20260508135340 | 57 | 118 | 4.3 | 7.0 | 0.00 | 0.02 | 0.00 | 78 | 1015.7 |
| 20260508134841 | 57 | 121 | 3.5 | 5.2 | 0.00 | 0.02 | 0.00 | 78 | 1015.6 |
| 20260508134340 | 57 | 111 | 4.3 | 6.1 | 0.00 | 0.02 | 0.00 | 78 | 1015.6 |
| 20260508133840 | 57 | 105 | 0.9 | 4.3 | 0.00 | 0.02 | 0.00 | 76 | 1015.6 |
| 20260508133340 | 57 | 99 | 2.6 | 5.2 | 0.00 | 0.02 | 0.00 | 75 | 1015.6 |
| 20260508132841 | 57 | 124 | 0.9 | 5.2 | 0.00 | 0.02 | 0.00 | 76 | 1015.6 |
| 20260508131841 | 57 | 99 | 0.9 | 5.2 | 0.00 | 0.02 | 0.00 | 76 | 1015.6 |
| 20260508131340 | 57 | 107 | 0.9 | 5.2 | 0.00 | 0.02 | 0.00 | 77 | 1015.5 |
| 20260508130841 | 57 | 102 | 0.9 | 6.1 | 0.00 | 0.02 | 0.00 | 78 | 1015.5 |
| 20260508125340 | 58 | 92 | 2.6 | 6.1 | 0.00 | 0.02 | 0.00 | 77 | 1015.3 |
| 20260508124842 | 58 | 97 | 1.7 | 5.2 | 0.00 | 0.02 | 0.00 | 75 | 1015.4 |
| 20260508124341 | 58 | 111 | 3.5 | 8.7 | 0.00 | 0.02 | 0.00 | 73 | 1015.3 |
| 20260508123842 | 59 | 107 | 1.7 | 5.2 | 0.00 | 0.05 | 0.00 | 73 | 1015.3 |
| 20260508123341 | 59 | 108 | 0.9 | 5.2 | 0.00 | 0.05 | 0.00 | 74 | 1015.2 |
| 20260508122842 | 58 | 72 | 0.9 | 6.1 | 0.00 | 0.05 | 0.00 | 74 | 1015.3 |
| 20260508122342 | 58 | 106 | 0.9 | 5.2 | 0.00 | 0.06 | 0.00 | 74 | 1015.3 |
| 20260508121841 | 58 | 125 | 1.7 | 5.2 | 0.00 | 0.06 | 0.00 | 73 | 1015.2 |
| 20260508121341 | 58 | 99 | 1.7 | 6.1 | 0.00 | 0.06 | 0.00 | 74 | 1015.3 |
| 20260508120842 | 58 | 109 | 0.9 | 5.2 | 0.00 | 0.06 | 0.00 | 74 | 1015.3 |
| 20260508120341 | 58 | 107 | 0.9 | 5.2 | 0.00 | 0.06 | 0.00 | 74 | 1015.2 |
| 20260508115842 | 58 | 103 | 6.1 | 8.7 | 0.00 | 0.06 | 0.00 | 72 | 1015.2 |
| 20260508115342 | 59 | 114 | 1.7 | 7.8 | 0.00 | 0.06 | 0.00 | 72 | 1015.2 |
| 20260508114841 | 59 | 98 | 4.3 | 6.1 | 0.00 | 0.06 | 0.00 | 71 | 1015.2 |
| 20260508114342 | 59 | 120 | 0.0 | 5.2 | 0.00 | 0.06 | 0.00 | 71 | 1015.2 |
| 20260508113842 | 58 | 100 | 3.5 | 6.1 | 0.00 | 0.06 | 0.00 | 72 | 1015.1 |
| 20260508113343 | 58 | 105 | 2.6 | 6.1 | 0.00 | 0.06 | 0.00 | 71 | 1015.1 |
| 20260508112842 | 58 | 121 | 4.3 | 7.0 | 0.00 | 0.06 | 0.00 | 70 | 1015.0 |
| 20260508112341 | 58 | 110 | 1.7 | 6.1 | 0.00 | 0.06 | 0.00 | 72 | 1015.0 |
| 20260508111842 | 59 | 99 | 3.5 | 8.7 | 0.00 | 0.06 | 0.00 | 70 | 1015.0 |
| 20260508111342 | 60 | 113 | 0.0 | 1.7 | 0.00 | 0.06 | 0.00 | 70 | 1015.0 |
| 20260508110841 | 60 | 114 | 0.9 | 4.3 | 0.00 | 0.06 | 0.00 | 70 | 1015.0 |
| 20260508110342 | 60 | 120 | 0.9 | 6.1 | 0.00 | 0.06 | 0.00 | 69 | 1015.0 |
| 20260508105841 | 59 | 123 | 0.9 | 6.1 | 0.00 | 0.06 | 0.00 | 72 | 1015.0 |
| 20260508105343 | 59 | 96 | 0.0 | 2.6 | 0.00 | 0.06 | 0.00 | 72 | 1015.0 |
| 20260508104343 | 58 | 101 | 2.6 | 7.0 | 0.00 | 0.06 | 0.00 | 74 | 1015.0 |
| 20260508103841 | 58 | 111 | 5.2 | 7.0 | 0.00 | 0.08 | 0.00 | 73 | 1015.0 |
| 20260508103343 | 58 | 95 | 2.6 | 7.0 | 0.00 | 0.08 | 0.00 | 73 | 1015.0 |
| 20260508102343 | 59 | 102 | 0.9 | 4.3 | 0.00 | 0.08 | 0.00 | 70 | 1014.9 |
| 20260508101842 | 59 | 112 | 1.7 | 5.2 | 0.00 | 0.08 | 0.00 | 71 | 1015.0 |
| 20260508101342 | 58 | 126 | 0.9 | 6.1 | 0.00 | 0.08 | 0.00 | 73 | 1014.9 |
| 20260508100842 | 58 | 104 | 0.9 | 5.2 | 0.00 | 0.08 | 0.00 | 74 | 1014.9 |
| 20260508100343 | 58 | 105 | 1.7 | 5.2 | 0.00 | 0.17 | 0.00 | 74 | 1014.8 |
| 20260508095843 | 58 | 104 | 0.0 | 1.7 | 0.00 | 0.18 | 0.00 | 74 | 1014.8 |
| 20260508095343 | 57 | 132 | 0.9 | 5.2 | 0.00 | 0.18 | 0.00 | 74 | 1014.8 |
| 20260508094343 | 57 | 130 | 1.7 | 5.2 | 0.00 | 0.18 | 0.00 | 71 | 1014.8 |
| 20260508093842 | 57 | 107 | 0.9 | 4.3 | 0.00 | 0.18 | 0.00 | 72 | 1014.8 |
| 20260508093343 | 57 | 101 | 1.7 | 2.6 | 0.00 | 0.18 | 0.00 | 71 | 1014.8 |
| 20260508092844 | 57 | 104 | 0.9 | 4.3 | 0.00 | 0.18 | 0.00 | 72 | 1014.7 |
| 20260508092343 | 57 | 118 | 0.0 | 1.7 | 0.00 | 0.18 | 0.00 | 73 | 1014.7 |
| 20260508091842 | 57 | 127 | 0.9 | 5.2 | 0.00 | 0.19 | 0.00 | 70 | 1014.6 |
| 20260508091342 | 58 | 100 | 0.9 | 5.2 | 0.00 | 0.19 | 0.00 | 69 | 1014.7 |
| 20260508090345 | 58 | 114 | 0.0 | 0.9 | 0.00 | 0.19 | 0.00 | 71 | 1014.7 |
| 20260508085844 | 57 | 114 | 0.0 | 1.7 | 0.00 | 0.19 | 0.00 | 71 | 1014.6 |
| 20260508084844 | 56 | 132 | 0.0 | 0.9 | 0.00 | 0.19 | 0.00 | 75 | 1014.6 |
| 20260508084345 | 56 | 109 | 0.0 | 0.9 | 0.00 | 0.19 | 0.00 | 77 | 1014.6 |
| 20260508083843 | 55 | 116 | 0.0 | 0.9 | 0.00 | 0.19 | 0.00 | 80 | 1014.5 |
| 20260508083343 | 54 | 106 | 1.7 | 4.3 | 0.00 | 0.19 | 0.00 | 79 | 1014.6 |
| 20260508082843 | 54 | 107 | 1.7 | 5.2 | 0.00 | 0.19 | 0.00 | 79 | 1014.6 |
| 20260508082344 | 55 | 109 | 1.7 | 4.3 | 0.00 | 0.20 | 0.00 | 80 | 1014.5 |
| 20260508081842 | 54 | 118 | 0.9 | 4.3 | 0.00 | 0.20 | 0.00 | 81 | 1014.5 |
| 20260508080845 | 55 | 108 | 0.0 | 2.6 | 0.00 | 0.20 | 0.00 | 80 | 1014.5 |
| 20260508080344 | 55 | 111 | 0.0 | 0.9 | 0.00 | 0.20 | 0.00 | 81 | 1014.4 |
| 20260508075843 | 54 | 101 | 0.9 | 1.7 | 0.00 | 0.20 | 0.00 | 80 | 1014.4 |
| 20260508074845 | 53 | 115 | 0.0 | 0.9 | 0.00 | 0.20 | 0.00 | 83 | 1014.4 |
| 20260508074343 | 53 | 125 | 0.0 | 4.3 | 0.00 | 0.20 | 0.00 | 83 | 1014.3 |
| 20260508073845 | 53 | 102 | 0.0 | 1.7 | 0.00 | 0.20 | 0.00 | 83 | 1014.3 |
| 20260508073343 | 53 | 105 | 0.9 | 1.7 | 0.00 | 0.20 | 0.00 | 83 | 1014.2 |
| 20260508072845 | 53 | 109 | 0.0 | 0.9 | 0.00 | 0.20 | 0.00 | 84 | 1014.2 |
| 20260508072344 | 52 | 122 | 0.0 | 0.9 | 0.00 | 0.20 | 0.00 | 86 | 1014.2 |
| 20260508071345 | 50 | 103 | 0.0 | 0.9 | 0.00 | 0.20 | 0.00 | 87 | 1014.2 |
| 20260508070844 | 50 | 117 | 0.0 | 0.0 | 0.00 | 0.20 | 0.00 | 86 | 1014.2 |
| 20260508070344 | 50 | 117 | 0.0 | 0.9 | 0.00 | 0.20 | 0.00 | 87 | 1014.2 |
| 20260508065845 | 50 | 100 | 0.0 | 0.9 | 0.00 | 0.20 | 0.00 | 87 | 1014.2 |
| 20260508065344 | 50 | 108 | 0.0 | 0.0 | 0.00 | 0.20 | 0.00 | 89 | 1014.2 |
| 20260508064345 | 48 | 102 | 0.0 | 0.9 | 0.00 | 0.20 | 0.00 | 92 | 1014.2 |
| 20260508063344 | 46 | 143 | 0.0 | 0.0 | 0.00 | 0.20 | 0.00 | 93 | 1014.2 |
| 20260508061844 | 43 | 338 | 0.0 | 0.0 | 0.00 | 0.20 | 0.00 | 93 | 1014.0 |
| 20260508060845 | 42 | 338 | 0.0 | 0.0 | 0.00 | 0.20 | 0.00 | 94 | 1013.9 |
| 20260508060344 | 42 | 338 | 0.0 | 0.0 | 0.00 | 0.20 | 0.00 | 93 | 1013.9 |
| 20260508055844 | 41 | 338 | 0.0 | 0.9 | 0.00 | 0.20 | 0.00 | 93 | 1013.8 |
| 20260508055344 | 41 | 338 | 0.0 | 0.9 | 0.00 | 0.20 | 0.00 | 93 | 1013.8 |
| 20260508054845 | 41 | 107 | 0.0 | 0.9 | 0.00 | 0.20 | 0.00 | 94 | 1013.8 |
| 20260508053844 | 40 | 107 | 0.0 | 0.9 | 0.00 | 0.20 | 0.00 | 94 | 1013.8 |
| 20260508053344 | 40 | 142 | 0.0 | 0.9 | 0.00 | 0.20 | 0.00 | 93 | 1013.8 |
| 20260508052844 | 40 | 284 | 0.0 | 0.9 | 0.00 | 0.20 | 0.00 | 93 | 1013.6 |
| 20260508052345 | 40 | 285 | 0.0 | 0.9 | 0.00 | 0.20 | 0.00 | 93 | 1013.6 |
| 20260508051344 | 40 | 280 | 0.0 | 0.9 | 0.00 | 0.20 | 0.00 | 93 | 1013.5 |
| 20260508050844 | 41 | 269 | 0.0 | 0.9 | 0.00 | 0.20 | 0.00 | 93 | 1013.5 |
| 20260508050345 | 41 | 269 | 0.0 | 0.9 | 0.00 | 0.20 | 0.00 | 93 | 1013.4 |
| 20260508045846 | 41 | 269 | 0.0 | 0.0 | 0.00 | 0.20 | 0.00 | 93 | 1013.4 |
| 20260508045345 | 41 | 269 | 0.0 | 0.9 | 0.00 | 0.20 | 0.00 | 93 | 1013.4 |
| 20260508044344 | 41 | 259 | 0.0 | 0.9 | 0.00 | 0.20 | 0.00 | 93 | 1013.5 |
| 20260508043845 | 40 | 259 | 0.0 | 0.0 | 0.00 | 0.20 | 0.00 | 93 | 1013.6 |
| 20260508043347 | 40 | 259 | 0.0 | 0.0 | 0.00 | 0.20 | 0.00 | 92 | 1013.6 |
| 20260508042845 | 40 | 259 | 0.0 | 0.0 | 0.00 | 0.20 | 0.00 | 92 | 1013.6 |
| 20260508042346 | 41 | 259 | 0.0 | 0.0 | 0.00 | 0.20 | 0.00 | 93 | 1013.6 |
| 20260508041846 | 41 | 259 | 0.0 | 0.0 | 0.00 | 0.20 | 0.00 | 93 | 1013.6 |
| 20260508040845 | 40 | 259 | 0.0 | 0.0 | 0.00 | 0.20 | 0.00 | 92 | 1013.6 |
| 20260508040345 | 41 | 259 | 0.0 | 0.0 | 0.00 | 0.20 | 0.00 | 92 | 1013.6 |
| 20260508035845 | 41 | 259 | 0.0 | 0.0 | 0.00 | 0.20 | 0.00 | 93 | 1013.6 |
| 20260508034846 | 41 | 259 | 0.0 | 0.0 | 0.00 | 0.20 | 0.00 | 93 | 1013.5 |
| 20260508033846 | 41 | 259 | 0.0 | 0.0 | 0.00 | 0.20 | 0.00 | 93 | 1013.4 |
| 20260508033345 | 40 | 259 | 0.0 | 0.0 | 0.00 | 0.20 | 0.00 | 93 | 1013.4 |
| 20260508032845 | 40 | 259 | 0.0 | 0.0 | 0.00 | 0.20 | 0.00 | 92 | 1013.4 |
| 20260508032345 | 40 | 259 | 0.0 | 0.0 | 0.00 | 0.20 | 0.00 | 92 | 1013.4 |
| 20260508031846 | 40 | 259 | 0.0 | 0.0 | 0.00 | 0.20 | 0.00 | 92 | 1013.4 |
| 20260508031345 | 41 | 259 | 0.0 | 0.0 | 0.00 | 0.20 | 0.00 | 92 | 1013.4 |
| 20260508030847 | 41 | 266 | 0.0 | 0.0 | 0.00 | 0.20 | 0.00 | 92 | 1013.4 |
| 20260508030345 | 41 | 266 | 0.0 | 0.0 | 0.00 | 0.20 | 0.00 | 92 | 1013.4 |
| 20260508025846 | 42 | 266 | 0.0 | 0.0 | 0.00 | 0.20 | 0.00 | 93 | 1013.4 |
| 20260508025347 | 41 | 266 | 0.0 | 0.9 | 0.00 | 0.20 | 0.00 | 93 | 1013.4 |
| 20260508024845 | 41 | 266 | 0.0 | 0.0 | 0.00 | 0.20 | 0.00 | 92 | 1013.4 |
| 20260508024346 | 41 | 266 | 0.0 | 0.0 | 0.00 | 0.20 | 0.00 | 92 | 1013.4 |
| 20260508023847 | 41 | 266 | 0.0 | 0.0 | 0.00 | 0.20 | 0.00 | 92 | 1013.4 |
| 20260508023346 | 41 | 266 | 0.0 | 0.0 | 0.00 | 0.20 | 0.00 | 93 | 1013.3 |
| 20260508022846 | 41 | 266 | 0.0 | 0.0 | 0.00 | 0.20 | 0.00 | 93 | 1013.3 |
| 20260508021846 | 41 | 266 | 0.0 | 0.0 | 0.00 | 0.20 | 0.00 | 92 | 1013.2 |
| 20260508021346 | 41 | 266 | 0.0 | 0.0 | 0.00 | 0.20 | 0.00 | 91 | 1013.2 |
| 20260508020847 | 41 | 266 | 0.0 | 0.0 | 0.00 | 0.20 | 0.00 | 92 | 1013.2 |
| 20260508020345 | 41 | 266 | 0.0 | 0.0 | 0.00 | 0.20 | 0.00 | 91 | 1013.3 |
| 20260508015846 | 42 | 266 | 0.0 | 0.0 | 0.00 | 0.20 | 0.00 | 92 | 1013.3 |
| 20260508015346 | 42 | 266 | 0.0 | 0.0 | 0.00 | 0.20 | 0.00 | 93 | 1013.2 |
| 20260508014846 | 42 | 266 | 0.0 | 0.0 | 0.00 | 0.20 | 0.00 | 92 | 1013.3 |
| 20260508014347 | 42 | 266 | 0.0 | 0.0 | 0.00 | 0.20 | 0.00 | 91 | 1013.2 |
| 20260508013846 | 42 | 266 | 0.0 | 0.0 | 0.00 | 0.20 | 0.00 | 91 | 1013.2 |
| 20260508013347 | 43 | 266 | 0.0 | 0.0 | 0.00 | 0.20 | 0.00 | 92 | 1013.1 |
| 20260508012847 | 43 | 266 | 0.0 | 0.0 | 0.00 | 0.20 | 0.00 | 92 | 1013.2 |
| 20260508012346 | 43 | 266 | 0.0 | 0.0 | 0.00 | 0.20 | 0.00 | 92 | 1013.2 |
| 20260508011848 | 43 | 266 | 0.0 | 0.0 | 0.00 | 0.20 | 0.00 | 92 | 1013.2 |
| 20260508011348 | 43 | 266 | 0.0 | 0.0 | 0.00 | 0.20 | 0.00 | 93 | 1013.2 |
| 20260508010847 | 43 | 266 | 0.0 | 0.0 | 0.00 | 0.20 | 0.00 | 93 | 1013.2 |
| 20260508010347 | 42 | 266 | 0.0 | 0.0 | 0.00 | 0.20 | 0.00 | 92 | 1013.3 |
| 20260508005848 | 42 | 266 | 0.0 | 0.0 | 0.00 | 0.20 | 0.00 | 92 | 1013.3 |
| 20260508005347 | 42 | 266 | 0.0 | 0.0 | 0.00 | 0.20 | 0.00 | 91 | 1013.3 |
| 20260508004848 | 42 | 266 | 0.0 | 0.0 | 0.00 | 0.20 | 0.00 | 91 | 1013.4 |
| 20260508003847 | 43 | 266 | 0.0 | 0.0 | 0.00 | 0.20 | 0.00 | 91 | 1013.4 |
| 20260508002849 | 43 | 266 | 0.0 | 0.0 | 0.00 | 0.20 | 0.00 | 91 | 1013.4 |
| 20260508002347 | 43 | 266 | 0.0 | 0.0 | 0.00 | 0.20 | 0.00 | 91 | 1013.5 |
| 20260508001847 | 43 | 266 | 0.0 | 0.0 | 0.00 | 0.20 | 0.00 | 91 | 1013.5 |
| 20260508001347 | 43 | 266 | 0.0 | 0.0 | 0.00 | 0.20 | 0.00 | 90 | 1013.6 |
| 20260508000847 | 43 | 266 | 0.0 | 0.0 | 0.00 | 0.20 | 0.00 | 90 | 1013.6 |
| 20260508000349 | 43 | 266 | 0.0 | 0.0 | 0.00 | 0.20 | 0.00 | 90 | 1013.5 |
| 20260507234349 | 44 | 266 | 0.0 | 0.9 | 0.00 | 0.20 | 0.00 | 90 | 1013.6 |
| 20260507233848 | 44 | 266 | 0.0 | 0.0 | 0.00 | 0.20 | 0.00 | 90 | 1013.5 |
| 20260507233348 | 44 | 266 | 0.0 | 0.0 | 0.00 | 0.20 | 0.00 | 90 | 1013.5 |
| 20260507232847 | 44 | 266 | 0.0 | 0.0 | 0.00 | 0.20 | 0.00 | 90 | 1013.5 |
| 20260507232348 | 45 | 266 | 0.0 | 0.0 | 0.00 | 0.20 | 0.00 | 90 | 1013.6 |
| 20260507231850 | 45 | 266 | 0.0 | 0.0 | 0.00 | 0.20 | 0.00 | 90 | 1013.6 |
| 20260507231347 | 45 | 266 | 0.0 | 0.0 | 0.00 | 0.20 | 0.00 | 90 | 1013.6 |
| 20260507230905 | 45 | 266 | 0.0 | 0.0 | 0.00 | 0.20 | 0.00 | 89 | 1013.6 |
| 20260507225847 | 45 | 266 | 0.0 | 0.0 | 0.00 | 0.20 | 0.02 | 89 | 1013.6 |